Location: Juzet
(42.9779°N, 0.7597°E)
Time: 03:03:52
(UTC+00:00)

Cosmos 192 - Pass Details

Date: 14 July 2020
Orbit: 702 x 712 km, 74.0° (Epoch: 04 August)

Event Time Altitude Azimuth Distance (km) Brightness Sun altitude
Rises 02:42:54 0° 336° (NNW) 3,101 8.0 -15.7°
Reaches altitude 10° 02:45:15 10° 333° (NNW) 2,178 7.2 -15.4°
Maximum altitude 02:50:05 62° 254° (WSW) 789 4.3 -14.8°
Enters shadow 02:54:50 10° 174° (S) 2,136 6.4 -14.3°
